Theta_e
324 324 324 323 324 324 323 323 322 320 319 318 318 318 319 318 316 315 316 316 317 318 317 316 316 317 316 315 315 316 316 316 316 316 316 316 316 315 315 315 315 315
324 324 324 324 324 323 323 323 321 320 319 318 318 319 319 317 316 315 315 315 315 316 316 315 315 315 315 315 315 315 316 316 315 316 316 316 316 315 314 313 313 314
325 324 324 324 323 324 323 322 321 320 319 318 318 319 318 317 316 316 315 316 316 316 316 316 315 315 314 314 314 314 315 315 315 316 316 316 315 315 314 313 313 312
325 324 324 324 324 323 322 321 321 320 319 319 319 318 318 316 317 318 317 316 316 316 316 316 316 316 315 315 315 316 316 316 316 315 315 315 316 316 316 316 315 314
325 324 323 324 324 322 321 320 321 320 319 319 319 318 318 317 318 319 318 316 317 317 317 317 317 316 316 317 317 317 316 316 316 315 315 316 315 315 315 317 316 315
327 325 324 324 323 321 320 321 321 320 319 319 319 319 318 318 319 319 318 319 319 319 317 317 317 317 317 317 317 317 316 317 316 316 316 317 316 314 314 315 315 315
328 326 325 324 323 321 321 322 321 320 319 319 319 319 319 319 319 319 320 320 320 319 319 319 319 319 319 319 318 317 318 318 317 316 316 317 316 315 314 314 313 313
328 327 326 324 323 321 321 323 322 320 320 319 319 320 320 320 320 320 320 321 321 320 320 321 321 320 321 321 319 319 320 320 319 317 317 317 316 316 316 315 314 313
328 326 326 325 325 322 322 323 322 321 320 319 320 321 321 321 320 320 321 321 321 321 321 322 321 321 322 322 321 321 321 322 321 319 319 320 318 317 317 317 317 317
328 326 324 324 323 321 322 323 322 322 321 319 320 320 320 320 320 321 321 321 321 322 322 322 322 322 323 323 322 323 323 323 322 322 322 322 321 319 319 319 319 319
326 326 325 322 319 317 319 321 321 321 321 319 319 320 320 320 321 321 322 322 322 322 322 322 323 323 324 324 324 324 324 323 323 323 322 322 322 321 321 321 321 321
324 325 325 321 319 319 319 319 318 320 320 319 319 320 320 321 321 321 321 322 321 321 321 321 321 323 324 324 324 324 324 323 322 322 322 322 322 322 321 321 321 322
326 326 325 322 321 322 322 320 318 318 319 319 320 320 320 320 321 320 321 322 321 320 320 319 321 322 323 323 323 324 324 323 322 321 322 322 322 321 320 320 321 321
325 326 325 323 322 323 323 323 321 318 318 319 321 321 321 321 321 321 321 321 321 320 319 319 320 320 321 322 323 322 322 323 322 320 321 321 321 321 320 320 320 321
323 324 324 322 322 323 324 325 324 321 320 320 321 321 321 321 321 321 321 321 320 320 320 320 320 319 319 321 321 321 321 321 321 320 319 319 320 321 321 320 320 320
323 323 324 322 322 323 323 324 324 323 322 321 321 321 321 321 321 321 321 321 321 321 320 320 319 319 319 320 321 321 321 321 321 320 319 319 320 321 321 320 320 320
323 323 323 323 323 324 323 323 324 323 322 321 321 321 321 321 321 321 321 321 321 321 321 320 319 319 319 320 321 322 322 321 320 319 318 319 320 319 320 321 321 321
321 322 323 323 324 324 323 323 323 323 322 322 321 321 321 321 321 321 321 321 320 320 320 320 319 318 318 320 321 321 321 320 319 319 318 318 318 318 319 321 322 322
322 322 323 323 324 324 322 322 323 323 322 322 322 322 321 320 321 321 321 321 320 320 319 319 318 319 319 320 320 320 320 319 319 319 317 317 318 319 320 321 321 321
322 323 322 322 323 322 322 322 322 322 322 322 322 322 322 321 321 321 320 320 319 319 318 318 318 320 320 320 319 319 319 318 318 317 317 317 319 319 320 321 321 321
321 321 321 322 322 322 322 322 322 321 322 322 321 322 322 321 321 320 319 318 319 319 318 319 320 320 319 318 318 318 317 316 316 317 317 317 317 318 319 318 319 321
320 320 321 321 322 323 323 322 322 322 321 321 321 321 320 320 320 320 319 319 320 319 319 319 319 318 316 316 317 316 313 312 314 315 316 316 316 316 316 316 317 319
317 320 320 321 322 323 322 321 322 322 321 321 320 320 320 320 320 319 319 320 320 318 317 317 316 314 313 312 312 310 309 311 314 315 315 315 315 315 316 315 316 317
311 314 316 317 320 321 321 321 321 321 321 321 320 320 320 320 320 319 318 319 318 316 314 314 312 310 308 306 305 305 307 312 314 315 315 315 314 315 314 312 313 315
307 308 310 312 314 316 317 319 319 319 319 319 319 318 318 318 319 319 317 317 317 315 313 313 310 306 304 302 302 305 309 312 313 314 314 314 313 313 311 308 310 312
307 307 308 308 310 310 312 314 315 316 316 318 318 317 316 317 318 318 318 317 316 315 314 312 308 304 302 301 303 307 310 311 311 313 314 313 312 312 310 307 307 308
Wind_Speed
26 26 25 25 24 23 21 22 22 20 20 20 20 19 19 18 17 17 17 17 17 17 17 17 17 17 17 16 17 17 16 16 16 16 18 18 17 17 15 14 15 15
24 23 22 23 23 22 20 20 20 20 20 21 20 20 19 18 17 17 18 19 19 18 17 16 16 16 17 17 17 17 16 16 17 16 17 18 18 17 15 14 14 14
21 21 22 22 22 22 20 19 19 20 21 21 20 20 19 18 19 19 19 19 19 18 18 17 17 17 17 17 17 17 17 17 16 16 17 18 18 17 17 16 16 14
19 20 21 21 21 20 20 20 20 21 21 21 20 19 19 20 20 19 18 18 18 18 18 18 18 17 17 17 17 17 17 16 16 17 18 18 17 16 16 15 15 15
17 18 20 20 20 20 21 20 21 21 21 21 20 19 19 20 19 18 17 18 18 17 17 18 17 16 17 17 17 17 16 15 15 16 17 17 15 14 14 14 15 15
13 16 20 21 20 21 21 20 20 21 21 20 20 19 19 19 18 16 16 16 16 16 17 18 16 15 16 16 16 15 15 15 14 12 12 12 13 13 12 13 15 15
13 15 19 22 22 22 20 18 19 20 19 19 18 18 18 18 17 15 15 14 14 14 16 17 15 14 13 13 14 13 11 12 11 11 12 11 11 11 11 11 12 12
13 14 17 19 20 20 18 16 17 18 18 18 18 17 17 16 16 15 14 13 13 13 13 13 13 13 11 11 12 11 9 8 9 11 12 10 9 9 9 9 9 9
13 13 15 16 16 17 16 16 17 17 17 17 17 17 16 15 15 14 13 13 12 12 11 10 11 11 9 9 10 10 8 9 11 11 9 8 8 9 9 8 8 9
10 11 14 14 12 13 13 13 16 16 15 16 16 16 16 15 14 14 13 12 11 11 10 10 11 10 9 10 10 10 9 8 10 10 8 7 8 10 10 9 9 9
9 10 13 13 10 12 13 12 14 15 14 15 16 15 15 13 13 13 12 11 11 12 12 13 13 13 12 12 11 10 10 9 8 8 7 5 5 7 9 9 9 8
15 14 14 16 15 16 17 17 17 16 15 16 15 14 14 11 11 12 11 11 11 12 13 12 13 14 13 11 11 10 10 9 7 7 6 5 4 5 6 6 6 7
15 15 16 20 20 18 17 16 18 18 16 16 14 13 13 12 13 14 14 13 12 11 11 10 11 13 13 11 11 10 10 9 7 7 7 7 7 7 7 7 7 8
13 14 17 19 18 15 13 12 15 18 17 16 15 15 15 14 15 16 15 15 13 12 10 9 10 13 13 11 10 9 9 8 7 7 8 8 8 9 8 8 8 9
13 13 17 17 14 13 13 9 9 14 16 16 16 17 16 15 15 14 14 14 13 11 10 9 10 11 13 13 11 9 9 8 6 6 7 9 9 9 9 8 8 9
14 14 16 19 18 16 16 14 12 14 16 16 15 16 17 16 15 13 12 12 11 10 9 9 9 9 10 11 11 9 8 6 5 6 7 8 9 9 9 9 8 7
11 10 11 16 18 16 17 19 17 12 12 14 13 13 15 15 14 13 11 10 9 9 9 10 9 8 8 10 10 9 7 5 5 5 5 6 8 8 9 9 8 7
11 12 11 12 14 15 16 18 16 10 8 11 11 11 13 13 12 11 10 9 9 10 11 11 10 9 9 10 10 8 7 5 6 6 6 7 8 9 9 9 9 9
13 14 13 11 10 12 15 16 17 16 13 11 11 11 12 13 12 11 11 11 11 12 12 11 10 9 9 10 10 9 8 7 7 8 8 8 10 11 10 9 10 11
9 8 8 9 9 12 15 17 18 18 16 13 12 13 13 13 13 12 12 11 12 12 12 11 10 9 9 10 11 11 11 10 9 8 8 7 8 9 9 9 10 12
11 8 7 8 10 11 13 13 13 14 13 12 13 14 13 13 13 12 12 12 13 13 13 11 10 10 11 12 13 14 13 11 10 10 10 10 10 11 11 11 12 14
19 19 16 15 14 13 11 11 12 11 11 11 12 13 12 11 13 13 13 15 15 13 12 12 13 14 14 14 15 14 13 12 12 12 14 14 14 13 13 13 14 16
12 18 20 20 19 18 16 14 14 14 13 12 12 13 12 11 12 13 14 15 15 13 14 16 17 17 15 15 15 14 14 14 13 14 16 14 12 12 11 12 13 14
17 11 8 9 12 15 15 15 15 15 15 14 13 13 13 13 13 13 14 14 14 13 15 16 16 15 14 14 14 15 17 15 12 14 18 17 13 12 11 10 11 11
23 21 18 14 9 3 5 9 11 11 12 13 13 13 13 13 14 14 14 14 13 12 13 14 14 14 14 14 15 16 17 13 8 12 19 18 15 14 13 12 12 11
21 21 20 19 16 14 9 3 3 7 10 12 12 12 13 14 15 17 17 18 16 14 13 14 15 15 15 15 15 16 15 11 8 13 20 20 17 16 16 14 14 13
Wind_Direction
160 159 157 156 157 160 161 162 159 154 152 149 145 144 142 141 140 135 133 132 132 131 121 110 111 112 108 106 106 104 102 98 99 102 100 92 86 88 88 85 82 80
158 157 157 157 158 162 163 161 159 157 156 151 148 149 146 143 143 140 135 131 127 128 126 119 116 114 112 113 112 110 109 105 102 104 102 94 90 92 92 90 87 84
156 157 160 159 160 164 164 161 162 161 157 153 152 151 147 143 141 137 133 132 131 130 130 126 122 119 119 121 119 114 112 110 108 110 109 102 97 97 96 92 88 85
158 160 161 162 163 164 161 161 164 163 158 157 156 153 148 143 139 138 137 137 136 132 129 126 123 122 121 120 118 115 114 115 115 115 113 109 105 105 104 100 94 90
160 164 164 163 163 161 161 163 165 164 162 161 158 156 150 144 141 143 143 139 135 132 130 128 127 127 127 125 122 122 121 118 116 116 113 108 106 106 108 110 106 98
151 163 166 163 160 158 158 162 164 163 164 161 158 157 151 146 145 145 142 139 136 136 135 132 129 127 127 127 125 124 124 120 116 115 114 111 108 105 103 111 112 105
130 145 155 155 156 155 151 153 159 163 163 160 158 159 153 148 148 145 143 143 140 140 138 134 134 131 128 130 128 125 124 127 128 122 118 118 116 110 106 111 115 108
125 134 144 146 147 151 151 150 153 159 162 161 159 159 156 151 150 149 149 148 144 144 141 137 138 135 132 134 131 127 117 111 122 125 119 116 118 118 110 106 110 107
121 122 135 144 146 152 162 167 164 162 163 164 162 161 159 155 153 152 152 152 149 146 142 137 137 133 132 136 131 127 118 100 109 124 124 114 119 128 123 111 106 101
125 123 130 141 154 160 167 181 180 171 166 166 166 164 161 157 155 156 157 157 155 154 153 150 148 141 131 131 132 134 140 134 127 132 131 117 117 130 135 131 125 114
168 164 146 149 166 170 179 195 187 176 173 174 172 168 164 161 161 161 161 160 160 165 167 162 160 153 136 131 143 152 157 159 154 149 148 139 132 143 151 149 140 132
191 188 169 167 172 172 184 196 188 179 179 178 175 170 167 168 168 170 171 169 169 175 176 170 165 159 149 148 164 174 175 177 176 175 183 193 197 191 189 182 162 151
187 190 184 180 178 172 177 188 188 185 180 175 176 173 172 177 178 177 180 182 182 184 182 179 176 176 175 173 175 182 190 193 192 198 209 217 227 232 226 218 199 185
177 184 184 181 180 170 163 171 186 191 185 179 181 181 180 182 179 174 177 183 191 194 186 173 175 187 195 193 186 190 202 208 210 221 229 228 235 242 234 225 213 203
180 184 180 180 182 172 158 148 165 184 188 189 190 187 182 179 176 171 173 180 188 193 190 180 178 191 203 206 206 208 212 215 214 225 239 239 241 242 231 220 211 200
180 180 178 184 187 178 168 163 165 177 184 187 185 180 176 177 177 175 176 183 186 186 192 196 191 192 203 212 216 216 213 215 225 238 243 237 235 230 213 202 198 186
181 173 171 182 189 186 180 180 182 181 180 182 181 178 177 179 183 182 181 187 192 191 197 202 198 192 199 209 215 214 210 212 220 222 214 206 206 201 187 181 178 162
170 168 161 169 185 192 189 190 196 200 193 187 186 187 187 187 189 189 188 192 198 202 206 209 211 211 208 211 214 213 215 217 201 182 171 173 177 176 173 172 167 154
158 161 159 160 177 188 186 189 201 211 215 205 192 192 193 193 196 197 196 196 197 200 204 207 213 213 205 208 210 198 188 186 175 160 154 156 159 162 168 172 166 155
152 159 161 161 169 178 182 187 195 204 211 207 194 193 192 189 192 196 197 197 197 202 210 214 215 206 195 197 193 177 168 166 163 159 160 161 161 166 176 182 172 161
146 157 169 176 178 180 184 190 196 201 207 204 197 196 196 194 197 202 208 212 213 215 218 215 205 189 179 177 172 163 157 155 152 154 155 150 147 151 159 166 168 168
166 171 173 177 180 182 186 196 202 205 208 205 202 204 203 202 205 207 210 212 212 211 205 193 178 168 165 166 167 166 165 160 155 156 155 148 143 143 142 142 153 167
156 173 176 177 178 179 183 188 191 194 194 190 190 196 198 198 198 196 198 201 197 187 178 171 165 163 166 170 174 179 178 172 163 160 161 158 151 148 143 136 143 159
50 76 118 154 173 184 189 186 181 184 189 188 186 188 189 190 187 182 184 190 186 175 170 168 167 170 173 178 182 182 181 178 168 159 160 161 160 158 155 149 146 151
34 39 42 46 55 81 179 183 179 180 182 183 185 185 183 183 183 181 182 185 180 175 176 177 179 180 181 181 182 183 185 186 181 171 166 165 167 165 157 158 161 159
20 22 23 26 27 22 24 54 162 188 187 186 188 191 190 188 187 188 190 191 190 189 188 190 191 189 186 185 186 191 196 194 183 178 175 173 174 173 164 162 168 172